| time (UTC) | temp C | wind direction | speed KPH | gust KPH | rain 1hr cm | rain 24hr cm | rain mn cm | humidity % | barometer mb |
| 20260504001028 | 13 | 213 | 11.3 | 17.7 | 0.00 | 0.00 | 0.00 | 51 | 1012.6 |
| 20260504000032 | 13 | 231 | 11.3 | 12.9 | 0.00 | 0.00 | 0.00 | 49 | 1012.6 |
| 20260503235019 | 13 | 217 | 11.3 | 14.5 | 0.00 | 0.00 | 0.00 | 49 | 1012.6 |
| 20260503234024 | 13 | 228 | 11.3 | 14.5 | 0.00 | 0.00 | 0.00 | 49 | 1012.6 |
| 20260503233027 | 14 | 228 | 17.7 | 20.9 | 0.00 | 0.00 | 0.00 | 48 | 1012.6 |
| 20260503232052 | 15 | 222 | 19.3 | 27.4 | 0.00 | 0.00 | 0.00 | 46 | 1012.7 |
| 20260503231018 | 15 | 236 | 14.5 | 17.7 | 0.00 | 0.00 | 0.00 | 45 | 1012.6 |
| 20260503230022 | 15 | 226 | 16.1 | 24.1 | 0.00 | 0.00 | 0.00 | 44 | 1012.6 |
| 20260503225026 | 15 | 223 | 14.5 | 17.7 | 0.00 | 0.00 | 0.00 | 44 | 1012.7 |
| 20260503224031 | 15 | 225 | 12.9 | 20.9 | 0.00 | 0.00 | 0.00 | 45 | 1012.8 |
| 20260503223016 | 15 | 233 | 20.9 | 27.4 | 0.00 | 0.00 | 0.00 | 45 | 1012.9 |
| 20260503222021 | 15 | 228 | 20.9 | 25.7 | 0.00 | 0.00 | 0.00 | 45 | 1012.9 |
| 20260503221025 | 15 | 234 | 20.9 | 27.4 | 0.00 | 0.00 | 0.00 | 45 | 1012.9 |
| 20260503220029 | 15 | 223 | 19.3 | 29.0 | 0.00 | 0.00 | 0.00 | 46 | 1012.9 |
| 20260503215016 | 15 | 234 | 14.5 | 19.3 | 0.00 | 0.00 | 0.00 | 44 | 1012.8 |
| 20260503214020 | 15 | 230 | 16.1 | 20.9 | 0.00 | 0.00 | 0.00 | 46 | 1012.7 |
| 20260503213024 | 15 | 230 | 12.9 | 16.1 | 0.00 | 0.00 | 0.00 | 46 | 1012.7 |
| 20260503212023 | 15 | 249 | 16.1 | 29.0 | 0.00 | 0.00 | 0.00 | 45 | 1012.7 |
| 20260503211015 | 15 | 224 | 20.9 | 25.7 | 0.00 | 0.00 | 0.00 | 45 | 1012.6 |
| 20260503210039 | 16 | 228 | 14.5 | 17.7 | 0.00 | 0.00 | 0.00 | 44 | 1012.7 |
| 20260503205018 | 16 | 244 | 12.9 | 17.7 | 0.00 | 0.00 | 0.00 | 45 | 1012.7 |
| 20260503204015 | 15 | 225 | 17.7 | 20.9 | 0.00 | 0.00 | 0.00 | 45 | 1012.8 |
| 20260503203032 | 15 | 215 | 17.7 | 30.6 | 0.00 | 0.00 | 0.00 | 46 | 1012.9 |
| 20260503202019 | 15 | 224 | 19.3 | 24.1 | 0.00 | 0.00 | 0.00 | 44 | 1013.0 |
| 20260503201023 | 16 | 226 | 17.7 | 20.9 | 0.00 | 0.00 | 0.00 | 45 | 1013.1 |
| 20260503200047 | 16 | 230 | 9.7 | 17.7 | 0.00 | 0.00 | 0.00 | 39 | 1013.2 |
| 20260503195051 | 17 | 229 | 8.0 | 14.5 | 0.00 | 0.00 | 0.00 | 41 | 1013.4 |
| 20260503194037 | 16 | 240 | 9.7 | 16.1 | 0.00 | 0.00 | 0.00 | 38 | 1013.6 |
| 20260503193022 | 16 | 255 | 9.7 | 14.5 | 0.00 | 0.00 | 0.00 | 39 | 1013.8 |
| 20260503192026 | 17 | 257 | 11.3 | 20.9 | 0.00 | 0.00 | 0.00 | 39 | 1013.9 |
| 20260503191051 | 17 | 253 | 8.0 | 14.5 | 0.00 | 0.00 | 0.00 | 38 | 1014.1 |
| 20260503190016 | 17 | 250 | 12.9 | 19.3 | 0.00 | 0.00 | 0.00 | 38 | 1014.3 |
| 20260503185021 | 16 | 229 | 19.3 | 29.0 | 0.00 | 0.00 | 0.00 | 39 | 1014.3 |
| 20260503184026 | 16 | 232 | 16.1 | 27.4 | 0.00 | 0.00 | 0.00 | 41 | 1014.3 |
| 20260503183030 | 15 | 257 | 12.9 | 22.5 | 0.00 | 0.00 | 0.00 | 38 | 1014.5 |
| 20260503182036 | 16 | 251 | 12.9 | 17.7 | 0.00 | 0.00 | 0.00 | 40 | 1014.6 |
| 20260503181020 | 16 | 242 | 12.9 | 20.9 | 0.00 | 0.00 | 0.00 | 39 | 1014.8 |
| 20260503180025 | 16 | 243 | 12.9 | 17.7 | 0.00 | 0.00 | 0.00 | 39 | 1014.9 |
| 20260503175029 | 15 | 236 | 17.7 | 30.6 | 0.00 | 0.00 | 0.00 | 41 | 1014.9 |
| 20260503174015 | 16 | 233 | 8.0 | 14.5 | 0.00 | 0.00 | 0.00 | 44 | 1014.9 |
| 20260503173020 | 15 | 240 | 14.5 | 20.9 | 0.00 | 0.00 | 0.00 | 41 | 1014.9 |
| 20260503172024 | 15 | 250 | 11.3 | 17.7 | 0.00 | 0.00 | 0.00 | 42 | 1015.1 |
| 20260503171028 | 15 | 268 | 12.9 | 19.3 | 0.00 | 0.00 | 0.00 | 42 | 1015.2 |
| 20260503131018 | 7 | 202 | 9.7 | 12.9 | 0.00 | 0.00 | 0.00 | 60 | 1017.0 |
| 20260503081021 | 1 | 181 | 4.8 | 6.4 | 0.00 | 0.03 | 0.00 | 89 | 1016.6 |
| 20260503072049 | 1 | 185 | 3.2 | 4.8 | 0.00 | 0.03 | 0.00 | 89 | 1016.7 |
| 20260503071049 | 1 | 171 | 3.2 | 4.8 | 0.00 | 0.03 | 0.00 | 89 | 1016.6 |
| 20260503055047 | 1 | 0.0 | 0.0 | 0.00 | 0.03 | 0.00 | 90 | 1017.1 | |
| 20260503054032 | 1 | 0.0 | 0.0 | 0.00 | 0.03 | 0.00 | 89 | 1017.1 | |
| 20260503053039 | 1 | 144 | 1.6 | 3.2 | 0.00 | 0.03 | 0.00 | 89 | 1017.1 |
| 20260503052022 | 1 | 203 | 0.0 | 3.2 | 0.00 | 0.03 | 0.00 | 88 | 1017.2 |
| 20260503051052 | 1 | 0.0 | 0.0 | 0.00 | 0.03 | 0.00 | 88 | 1017.2 | |
| 20260503050031 | 1 | 0.0 | 0.0 | 0.00 | 0.03 | 0.00 | 87 | 1017.3 | |
| 20260503045017 | 2 | 0.0 | 0.0 | 0.00 | 0.03 | 0.00 | 86 | 1017.3 | |
| 20260503044042 | 2 | 0.0 | 0.0 | 0.00 | 0.03 | 0.00 | 86 | 1017.3 | |
| 20260503043027 | 2 | 0.0 | 0.0 | 0.00 | 0.03 | 0.00 | 86 | 1017.3 | |
| 20260503042051 | 2 | 0.0 | 0.0 | 0.00 | 0.03 | 0.00 | 85 | 1017.5 | |
| 20260503041016 | 3 | 0.0 | 0.0 | 0.00 | 0.03 | 0.00 | 84 | 1017.5 | |
| 20260503040021 | 3 | 0.0 | 0.0 | 0.00 | 0.03 | 0.00 | 84 | 1017.5 | |
| 20260503035025 | 3 | 203 | 3.2 | 3.2 | 0.00 | 0.03 | 0.03 | 84 | 1017.6 |
| 20260503034023 | 3 | 208 | 3.2 | 4.8 | 0.00 | 0.03 | 0.03 | 84 | 1017.7 |
| 20260503033015 | 3 | 219 | 1.6 | 4.8 | 0.00 | 0.03 | 0.03 | 83 | 1017.7 |
| 20260503032020 | 3 | 0.0 | 0.0 | 0.00 | 0.03 | 0.03 | 81 | 1017.9 | |
| 20260503031018 | 3 | 158 | 0.0 | 3.2 | 0.00 | 0.03 | 0.03 | 81 | 1017.7 |
| 20260503030037 | 3 | 197 | 4.8 | 4.8 | 0.00 | 0.03 | 0.03 | 83 | 1017.9 |
| 20260503025015 | 3 | 201 | 3.2 | 4.8 | 0.00 | 0.03 | 0.03 | 82 | 1018.0 |
| 20260503024040 | 3 | 203 | 1.6 | 3.2 | 0.00 | 0.03 | 0.03 | 82 | 1018.0 |
| 20260503023024 | 3 | 0.0 | 0.0 | 0.00 | 0.03 | 0.03 | 82 | 1018.0 | |
| 20260503022028 | 4 | 0.0 | 0.0 | 0.00 | 0.03 | 0.03 | 81 | 1018.2 | |
| 20260503021032 | 4 | 0.0 | 0.0 | 0.00 | 0.03 | 0.03 | 79 | 1018.0 | |
| 20260503020019 | 4 | 218 | 1.6 | 3.2 | 0.00 | 0.03 | 0.03 | 80 | 1018.0 |
| 20260503015023 | 4 | 197 | 3.2 | 3.2 | 0.00 | 0.03 | 0.03 | 80 | 1018.0 |
| 20260503014027 | 5 | 0.0 | 0.0 | 0.00 | 0.03 | 0.03 | 78 | 1018.0 | |
| 20260503013032 | 5 | 219 | 1.6 | 3.2 | 0.00 | 0.03 | 0.03 | 77 | 1018.0 |
| 20260503012018 | 5 | 270 | 0.0 | 3.2 | 0.00 | 0.03 | 0.03 | 72 | 1018.0 |
| 20260503011022 | 5 | 0.0 | 0.0 | 0.00 | 0.03 | 0.03 | 72 | 1018.0 | |
| 20260503010027 | 5 | 268 | 1.6 | 3.2 | 0.00 | 0.03 | 0.03 | 70 | 1018.0 |
| 20260503005031 | 5 | 262 | 3.2 | 4.8 | 0.00 | 0.03 | 0.03 | 70 | 1018.0 |
| 20260503004017 | 5 | 260 | 1.6 | 3.2 | 0.00 | 0.03 | 0.03 | 69 | 1017.9 |
| 20260503003022 | 5 | 248 | 1.6 | 3.2 | 0.00 | 0.03 | 0.03 | 69 | 1017.9 |
| 20260503002026 | 5 | 255 | 3.2 | 4.8 | 0.00 | 0.03 | 0.03 | 68 | 1017.9 |